Regional Weather Roundup
Issued by NWS

Home | Current Version | Previous Version | Graphics & Text | Print | Product List | Glossary On
Versions: 1 2 3 4 5 6 7 8 9 10 11 12 13 14 15 16 17 18 19 20 21 22 23 24 25 26 27 28 29 30 31 32 33 34 35 36 37 38 39 40 41 42 43 44 45 46 47 48 49 50
000
ASUS45 KTFX 240910
RWRMT
MONTANA REGIONAL WEATHER ROUNDUP
NATIONAL WEATHER SERVICE GREAT FALLS MT
300 AM MDT TUE APR 24 2018

NOTE: "FAIR" INDICATES FEW OR NO CLOUDS BELOW 12000 FEET WITH NO
SIGNIFICANT WEATHER AND/OR OBSTRUCTIONS TO VISIBILITY.

MTZ001>007-043-241000-
WEST OF THE DIVIDE

CITY           SKY/WX    TMP DP  RH WIND       PRES   REMARKS
KALISPELL      FAIR      30  24  78 W3        30.45R
MISSOULA       FAIR      32  23  69 CALM      30.45F
BUTTE          FAIR      25  21  85 CALM      30.47R
MULLAN PASS    FAIR      33  20  58 SE10G18   30.39F WCI  25
ANACONDA         N/A     27  21  80 S3        30.47F
DEER LODGE       N/A     25  21  86 CALM      30.50R
HAMILTON         N/A     30  25  80 MISG      30.46S
PLAINS           N/A     31  23  72 CALM      30.42S
RONAN            N/A     32  27  80 E6        30.46R WCI  26
$$

MTZ008-052>055-241000-
SOUTHWEST MONTANA

CITY           SKY/WX    TMP DP  RH WIND       PRES   REMARKS
BOZEMAN        FAIR      32  27  81 CALM      30.48S
DILLON         FAIR      28  27  96 SE5       30.44S
ENNIS          CLEAR     30  27  86 S5        30.47S
W YELLOWSTONE  FAIR      23  19  86 NE7       30.39S WCI  15
THREE FORKS      N/A     28  26  92 CALM      30.42S
TWIN BRIDGES     N/A     33  26  76 N13       30.37S WCI  24
$$

MTZ009-010-012-014-046-048-049-054-241000-
EAST SLOPES AND CENTRAL MONTANA

CITY           SKY/WX    TMP DP  RH WIND       PRES   REMARKS
CUT BANK       FAIR      33  21  61 SW6       30.41F WCI  28
GREAT FALLS    FAIR      28  23  81 VRB3      30.46R
HELENA         FAIR      33  28  81 W5        30.48S
CHOTEAU          N/A     32  21  64 SW6       30.46S WCI  26
CONRAD           N/A     27  24  88 E5        30.41
WHITE SULPHUR    N/A     21  19  93 CALM      30.46S
$$

MTZ011-013-016-021-045-047-050-051-241000-
NORTH CENTRAL MONTANA

CITY           SKY/WX    TMP DP  RH WIND       PRES   REMARKS
HAVRE          FAIR      32  25  75 W5        30.44S
LEWISTOWN      FAIR      28  26  92 SE5       30.46F
N BAR RANCH    FAIR      28  23  80 NW6       30.48S WCI  22
$$

MTZ017>020-022>027-061-062-241000-
NORTHEAST MONTANA

CITY           SKY/WX    TMP DP  RH WIND       PRES   REMARKS
GLASGOW        FAIR      36  24  62 S5        30.44R
GLENDIVE       FAIR      35  31  85 NW10      30.45S WCI  27
JORDAN           N/A     35  31  85 W7        30.44F WCI  29
MALTA          CLEAR     32  27  80 W7        30.43F WCI  26
SIDNEY         FAIR      32  26  78 CALM      30.45R
WOLF POINT     FAIR      29  23  78 CALM      30.46R
PLENTYWOOD       N/A     36  25  64 CALM      30.44R
POPLAR           N/A     30  21  69 W3        30.46S
SCOBEY           N/A     26  15  63 MISG      30.39R
$$

MTZ028>42-056>058-241000-
SOUTHCENTRAL AND SOUTHEAST MONTANA

CITY           SKY/WX    TMP DP  RH WIND       PRES   REMARKS
BAKER          CLOUDY    33  33 100 NW8       30.44S WCI  26
BILLINGS       MOCLDY    34  34 100 SW9       30.48F WCI  27
LIVINGSTON     FAIR      27  24  89 W3        30.47F
MILES CITY     FAIR      35  35 100 W7        30.47S WCI  29
BIG TIMBER     PTCLDY    28  28 100 W5        30.49F
EKALAKA          N/A     31  28  88 W7        30.35S WCI  24
FORSYTH          N/A     36  36 100 CALM      30.48S
$$

REGIONAL REPORTS...DAKOTAS

CITY           SKY/WX    TMP DP  RH WIND       PRES   REMARKS
WILLISTON      FAIR      25  21  85 CALM      30.44S
MINOT          FAIR      32  24  72 NW9       30.38S WCI  24
DICKINSON      CLOUDY    37  30  75 N7        30.37R WCI  32
BEACH          FAIR      34  34 100 W10       30.45S WCI  26
CROSBY         FAIR      27  25  93 W5        30.43S
TIOGA          FAIR      28  25  86 W6        30.43R WCI  22
WATFORD CITY   FAIR      28  27  93 CALM      30.43R
BISMARCK       LGT RAIN  41  35  79 N13G24    30.36R
GRAND FORKS    CLOUDY    42  36  79 N9        30.29R
FARGO          LGT RAIN  47  38  71 N16       30.23R
BUFFALO SD       N/A     35 N/A N/A N13       30.34  WCI  26
RAPID CITY     LGT SNOW  34  32  92 NW30G40   30.32R FOG     WCI  20
$$

REGIONAL REPORTS...WYOMING/IDAHO/WASHINGTON

CITY           SKY/WX    TMP DP  RH WIND       PRES   REMARKS
GILLETTE       CLOUDY    32  31  96 N13       30.44R FOG     WCI  22
SHERIDAN       FLURRIES  34  32  92 W9        30.49S WCI  27
BUFFALO WY     CLOUDY    32  29  88 N18       30.45S WCI  20
CODY           FAIR      30  24  78 NW3       30.47S
YELLOWSTONE LA   N/A     16  13  88 CALM      30.41S
IDAHO FALLS    FAIR      33  29  85 N9        30.36S WCI  25
SALMON         FAIR      32  27  81 CALM      30.43S
BOISE          FAIR      48  38  68 SE15      30.29R
SPOKANE        FAIR      46  28  49 CALM      30.38S
$$

REGIONAL REPORTS...ALBERTA

CITY           SKY/WX    TMP DP  RH WIND       PRES   REMARKS
CALGARY        CLEAR     37  23  56 SW3       30.30F
CARDSTON         N/A     36  19  51 SW7         N/A  WCI  30
EDMONTON       CLEAR     41  25  52 SW9       30.23S
FORT MCMURRAY  PTCLDY    41  25  52 CALM      30.11F
HIGH LEVEL     CLEAR     39  25  56 VRB2      29.94F
LETHBRIDGE     CLEAR     36  23  60 SW10G20   30.35F WCI  28
LLOYDMINSTER   MOCLDY    37  28  70 SW9       30.27F WCI  31
MEDICINE HAT   CLEAR     36  28  75 SW8       30.37F WCI  29
MILK RIVER       N/A     34  27  75 SW10        N/A  WCI  26
ONEFOUR          N/A     32  21  64 SE2         N/A
PEACE RIVER    PTCLDY    43  23  45 W10       30.12F
PINCHER CREEK  CLEAR     37  21  52 W12       30.37S WCI  30
WATERTON GATE    N/A     39  18  41 S14         N/A  WCI  31
$$

REGIONAL REPORTS...SASKATCHEWAN

CITY           SKY/WX    TMP DP  RH WIND       PRES   REMARKS
CORONACH         N/A     27  21  80 W2          N/A
ESTEVAN        CLEAR     28  21  74 W9        30.41S WCI  20
MOOSE JAW        N/A     28  23  80 SW3         N/A
PRINCE ALBERT  PTCLDY    30  27  86 E6        30.36F WCI  24
REGINA         CLEAR     30  23  74 SW3       30.40S
ROCKGLEN         N/A     34  21  60 W2          N/A
SASKATOON      CLEAR     32  25  74 S6        30.37F WCI  26
SWIFT CURRENT  CLEAR     32  23  69 S10       30.39S WCI  24
VAL MARIE        N/A     25  23  93 NE2         N/A
$$



USA.gov is the U.S. government's official web portal to all federal, state and local government web resources and services.